Flag for Ireland Weather past 2 weeks in Cork, Ireland

Now
49 °F

Overcast.


Feels Like: 48 °F
Forecast: 46 / 65 °F
Wind: 3 mph from West

Location: Cork Airport

Current Time: May 25, 2015 at 6:53:30 AM

Latest Report: May 25, 2015 at 6:00 AM


Visibility: 19 mi

Pressure: 30.21 "Hg

Humidity: 85%

Dew point: 45 °F

Location of CorkLocation

Historic Weather in Cork — Graph

°F

Cork temperature yesterday

Maximum temperature yesterday: 58 °F (at 4:00 PM)
Minimum temperature yesterday: 49 °F (at 11:00 PM)
Average temperature yesterday: 54 °F

Past Weeks' High & Low Weather Summary

 TemperatureHumidityPressure
High64 °F (May 22, 4:00 PM)100% (May 10, 5:00 AM)30.42 "Hg (May 10, 5:00 AM)
Low41 °F (May 19, 6:00 AM)47% (May 16, 5:00 PM)29.60 "Hg (May 14, 7:00 AM)
Average51 °F84%30.10 "Hg
* Reported May 10 5:00 AM — May 25 5:00 AM, Cork, Weather by CustomWeather, © 2015

Note: Actual official high and low records may vary slightly from our data, if they occured in-between our weather recording intervals... More about our weather records

Advertising

Cork weather history for previous 24 hours

 ConditionsComfort  
Time TempWeatherWind HumidityBarometerVisibility
5:00 AM
Mon, May 25
49 °FOvercast.5 mph84%30.22 "Hg16 mi
3:00 AM49 °FOvercast.5 mph82%30.24 "Hg12 mi
2:00 AM48 °FOvercast.2 mph83%30.24 "Hg12 mi
1:00 AM48 °FOvercast.6 mph82%30.25 "Hg16 mi
12:00 AM48 °FOvercast.3 mph82%30.25 "Hg16 mi
11:00 PM
Sun, May 24
49 °FDrizzle. Overcast.7 mph77%30.25 "Hg16 mi
9:00 PM51 °FOvercast.9 mph73%30.25 "Hg25 mi
8:00 PM53 °FPartly sunny.7 mph70%30.23 "Hg25 mi
7:00 PM54 °FPartly sunny.9 mph66%30.23 "Hg25 mi
6:00 PM56 °FPartly sunny.8 mph65%30.22 "Hg28 mi
5:00 PM57 °FPartly sunny.9 mph63%30.22 "Hg25 mi
4:00 PM58 °FPartly sunny.7 mph60%30.21 "Hg22 mi
3:00 PM57 °FOvercast.8 mph64%30.22 "Hg25 mi
2:00 PM56 °FOvercast.9 mph65%30.21 "Hg19 mi
1:00 PM55 °FOvercast.9 mph68%30.21 "Hg16 mi
12:00 PM53 °FOvercast.8 mph73%30.22 "Hg16 mi
11:00 AM52 °FOvercast.8 mph75%30.22 "Hg16 mi
10:00 AM52 °FOvercast.8 mph80%30.20 "Hg19 mi
9:00 AM51 °FLow clouds.9 mph88%30.20 "Hg22 mi
8:00 AM53 °FOvercast.6 mph88%30.17 "Hg31 mi
7:00 AM53 °FPartly sunny.6 mph92%30.16 "Hg25 mi
6:00 AM54 °FLow clouds.5 mph94%30.16 "Hg19 mi
Weather by CustomWeather, © 2015

See weather overviewHow to use our weather pages